GW6830 Weather Reports


time (UTC)temp
F
wind
direction
speed
knots
gust
knots
rain 1hr
in
rain 24hr
in
rain mn
in
humidity
%
barometer
mb
20260510071549 61 349 1.7 2.6 0.00 0.00 0.00 73 1013.5
20260510071049 61 344 0.9 2.6 0.00 0.00 0.00 74 1013.5
20260510070549 60 2 0.9 2.6 0.00 0.00 0.00 73 1013.5
20260510070049 60 339 1.7 2.6 0.00 0.00 0.00 74 1013.4
20260510065549 60 2 1.7 2.6 0.00 0.00 0.00 76 1013.5
20260510065049 60 5 1.7 1.7 0.00 0.00 0.00 77 1013.6
20260510064550 60 1 1.7 1.7 0.00 0.00 0.00 77 1013.7
20260510064049 60 16 1.7 2.6 0.00 0.00 0.00 77 1013.7
20260510063549 61 348 0.9 2.6 0.00 0.00 0.00 77 1013.7
20260510063049 61 21 1.7 2.6 0.00 0.00 0.00 78 1013.8
20260510062549 61 13 1.7 3.5 0.00 0.00 0.00 74 1013.8
20260510062049 60 347 1.7 3.5 0.00 0.00 0.00 74 1013.8
20260510061549 60 12 1.7 2.6 0.00 0.00 0.00 78 1013.8
20260510061050 60 17 1.7 2.6 0.00 0.00 0.00 78 1013.8
20260510060549 60 348 1.7 2.6 0.00 0.00 0.00 79 1013.7
20260510060049 61 26 1.7 1.7 0.00 0.00 0.00 79 1013.8
20260510055549 61 16 1.7 1.7 0.00 0.00 0.00 79 1013.8
20260510055049 61 10 1.7 1.7 0.00 0.00 0.00 77 1013.9
20260510054549 62 17 1.7 2.6 0.00 0.00 0.00 78 1013.8
20260510054049 62 8 1.7 2.6 0.00 0.00 0.00 74 1013.8
20260510053549 62 349 1.7 3.5 0.00 0.00 0.00 74 1013.7
20260510053049 62 347 1.7 2.6 0.00 0.00 0.00 74 1013.7
20260510052549 62 336 1.7 2.6 0.00 0.00 0.00 73 1013.8
20260510052049 62 350 1.7 1.7 0.00 0.00 0.00 74 1013.7
20260510051549 62 335 0.9 2.6 0.00 0.00 0.00 74 1013.7
20260510051049 62 329 1.7 2.6 0.00 0.00 0.00 73 1013.7
20260510050549 62 11 1.7 2.6 0.00 0.00 0.00 73 1013.7
20260510050050 62 340 1.7 2.6 0.00 0.00 0.00 74 1013.7
20260510045549 62 339 1.7 2.6 0.00 0.00 0.00 75 1013.7
20260510045049 62 352 0.9 1.7 0.00 0.00 0.00 75 1013.6
20260510044549 63 17 0.9 1.7 0.00 0.00 0.00 75 1013.5
20260510044049 64 18 1.7 3.5 0.00 0.00 0.00 69 1013.4
20260510043550 63 2 1.7 3.5 0.00 0.00 0.00 67 1013.5
20260510043049 62 343 0.9 3.5 0.00 0.00 0.00 71 1013.5
20260510042549 62 353 1.7 2.6 0.00 0.00 0.00 76 1013.4
20260510042049 62 334 0.9 1.7 0.00 0.00 0.00 84 1013.5
20260510041549 63 343 0.9 1.7 0.00 0.00 0.00 82 1013.5
20260510041049 63 356 1.7 1.7 0.00 0.00 0.00 81 1013.5
20260510040550 63 10 1.7 1.7 0.00 0.00 0.00 79 1013.4
20260510040050 63 24 0.9 1.7 0.00 0.00 0.00 76 1013.3
20260510035550 63 14 0.0 1.7 0.00 0.00 0.00 79 1013.2
20260510035049 64 0 0.0 0.9 0.00 0.00 0.00 79 1013.1
20260510034549 64 294 0.0 1.7 0.00 0.00 0.00 77 1013.0
20260510034049 65 34 0.0 1.7 0.00 0.00 0.00 76 1012.9
20260510033549 66 356 0.9 1.7 0.00 0.00 0.00 72 1012.9
20260510033051 67 13 0.0 1.7 0.00 0.00 0.00 64 1012.8
20260510032550 67 0 0.0 1.7 0.00 0.00 0.00 56 1012.7
20260510032050 67 321 0.0 1.7 0.00 0.00 0.00 56 1012.7
20260510031549 67 1 0.9 1.7 0.00 0.00 0.00 56 1012.6
20260510031049 68 331 0.9 1.7 0.00 0.00 0.00 56 1012.5
20260510030549 68 9 0.9 2.6 0.00 0.00 0.00 56 1012.5
20260510030049 69 357 0.9 1.7 0.00 0.00 0.00 56 1012.6
20260510025549 69 19 1.7 1.7 0.00 0.00 0.00 53 1012.5
20260510025049 71 33 0.9 2.6 0.00 0.00 0.00 51 1012.3
20260510024549 71 5 1.7 2.6 0.00 0.00 0.00 47 1012.2
20260510024049 71 342 0.9 2.6 0.00 0.00 0.00 47 1012.1
20260510023549 71 226 0.9 1.7 0.00 0.00 0.00 47 1012.0
20260510023050 70 261 0.9 1.7 0.00 0.00 0.00 48 1011.9
20260510022549 70 311 0.0 2.6 0.00 0.00 0.00 51 1011.8
20260510022049 69 319 0.0 2.6 0.00 0.00 0.00 53 1011.6
20260510021550 69 331 0.0 2.6 0.00 0.00 0.00 57 1011.6
20260510021050 69 331 0.0 3.5 0.00 0.00 0.00 59 1011.5
20260510020549 70 317 1.7 3.5 0.00 0.00 0.00 60 1011.3
20260510020049 71 2 0.9 1.7 0.00 0.00 0.00 57 1011.2
20260510015549 72 298 0.0 1.7 0.00 0.00 0.00 58 1011.1
20260510015049 73 37 0.0 2.6 0.00 0.00 0.00 53 1011.1
20260510014550 74 346 0.9 1.7 0.00 0.00 0.00 44 1011.0
20260510014049 74 268 0.0 1.7 0.00 0.00 0.00 45 1010.8
20260510013553 74 259 0.9 2.6 0.00 0.00 0.00 45 1010.7
20260510013050 74 267 0.9 2.6 0.00 0.00 0.00 45 1010.7
20260510012549 74 262 0.0 1.7 0.00 0.00 0.00 46 1010.7
20260510012049 74 272 0.0 1.7 0.00 0.00 0.00 47 1010.6
20260510011549 74 277 0.0 2.6 0.00 0.00 0.00 47 1010.6
20260510011050 75 274 1.7 3.5 0.00 0.00 0.00 47 1010.5
20260510010549 75 250 1.7 2.6 0.00 0.00 0.00 47 1010.5
20260510010049 75 265 0.0 2.6 0.00 0.00 0.00 48 1010.4
20260510005549 75 294 0.9 2.6 0.00 0.00 0.00 47 1010.4
20260510005049 76 266 0.0 3.5 0.00 0.00 0.00 48 1010.4
20260510004549 76 292 0.0 2.6 0.00 0.00 0.00 48 1010.4
20260510004050 77 296 1.7 3.5 0.00 0.00 0.00 47 1010.4
20260510003549 78 257 1.7 3.5 0.00 0.00 0.00 47 1010.3
20260510003050 79 268 0.0 1.7 0.00 0.00 0.00 47 1010.3
20260510002549 80 285 0.0 1.7 0.00 0.00 0.00 45 1010.3
20260510002049 80 319 0.0 1.7 0.00 0.00 0.00 47 1010.3
20260510001550 80 295 0.0 3.5 0.00 0.00 0.00 46 1010.3
20260510001049 80 231 1.7 3.5 0.00 0.00 0.00 44 1010.3
20260510000549 81 264 0.9 3.5 0.00 0.00 0.00 44 1010.2
20260510000050 82 248 0.0 1.7 0.00 0.00 0.00 44 1010.3
20260509235549 82 271 0.9 1.7 0.00 0.00 0.00 44 1010.4
20260509235049 82 275 0.0 2.6 0.00 0.00 0.00 43 1010.3
20260509234549 82 300 0.9 2.6 0.00 0.00 0.00 43 1010.2
20260509234050 81 318 0.9 2.6 0.00 0.00 0.00 43 1010.2
20260509233549 81 355 0.9 2.6 0.00 0.00 0.00 43 1010.2
20260509233049 81 171 0.9 3.5 0.00 0.00 0.00 41 1010.2
20260509232549 82 239 0.9 2.6 0.00 0.00 0.00 41 1010.3
20260509232049 83 285 0.9 3.5 0.00 0.00 0.00 41 1010.3
20260509231549 83 323 2.6 3.5 0.00 0.00 0.00 38 1010.3
20260509231049 85 326 0.9 2.6 0.00 0.00 0.00 35 1010.3
20260509230549 85 332 1.7 2.6 0.00 0.00 0.00 33 1010.3
20260509230051 85 358 0.9 2.6 0.00 0.00 0.00 36 1010.2
20260509225549 85 269 0.9 1.7 0.00 0.00 0.00 35 1010.2
20260509225050 85 119 0.0 3.5 0.00 0.00 0.00 33 1010.2
20260509224549 85 348 1.7 3.5 0.00 0.00 0.00 34 1010.2
20260509224049 85 331 0.9 2.6 0.00 0.00 0.00 35 1010.2
20260509223549 86 351 1.7 2.6 0.00 0.00 0.00 35 1010.1
20260509223049 85 26 0.9 3.5 0.00 0.00 0.00 36 1010.1
20260509222550 85 39 0.9 3.5 0.00 0.00 0.00 35 1010.1
20260509222050 85 349 1.7 3.5 0.00 0.00 0.00 36 1010.1
20260509221549 85 17 0.0 3.5 0.00 0.00 0.00 37 1010.1
20260509221049 85 235 0.9 1.7 0.00 0.00 0.00 33 1010.1
20260509220549 84 348 0.9 2.6 0.00 0.00 0.00 35 1010.1
20260509220049 83 3 0.9 4.3 0.00 0.00 0.00 35 1010.2
20260509215549 84 8 2.6 4.3 0.00 0.00 0.00 34 1010.2
20260509215049 83 326 0.0 2.6 0.00 0.00 0.00 35 1010.2
20260509214549 83 130 1.7 2.6 0.00 0.00 0.00 35 1010.3
20260509214052 84 46 0.9 2.6 0.00 0.00 0.00 35 1010.3
20260509213549 84 4 1.7 5.2 0.00 0.00 0.00 37 1010.3
20260509213050 84 342 2.6 5.2 0.00 0.00 0.00 35 1010.3
20260509212550 84 50 1.7 4.3 0.00 0.00 0.00 36 1010.4
20260509212049 84 147 1.7 3.5 0.00 0.00 0.00 34 1010.4
20260509211549 83 315 1.7 5.2 0.00 0.00 0.00 38 1010.4
20260509211049 84 305 2.6 4.3 0.00 0.00 0.00 35 1010.4
20260509210549 85 39 0.9 5.2 0.00 0.00 0.00 38 1010.5
20260509210049 86 354 2.6 4.3 0.00 0.00 0.00 34 1010.4
20260509205549 86 340 1.7 5.2 0.00 0.00 0.00 37 1010.5
20260509205049 86 8 3.5 5.2 0.00 0.00 0.00 35 1010.4
20260509204549 85 11 2.6 3.5 0.00 0.00 0.00 35 1010.4
20260509204049 84 299 0.9 5.2 0.00 0.00 0.00 37 1010.5
20260509203549 84 28 1.7 5.2 0.00 0.00 0.00 37 1010.5
20260509203049 83 347 1.7 7.8 0.00 0.00 0.00 37 1010.5
20260509202549 83 0 2.6 4.3 0.00 0.00 0.00 36 1010.6
20260509202049 83 310 2.6 6.1 0.00 0.00 0.00 38 1010.7
20260509201550 84 243 1.7 4.3 0.00 0.00 0.00 38 1010.7
20260509201049 84 134 0.9 3.5 0.00 0.00 0.00 37 1010.7
20260509200549 85 323 1.7 4.3 0.00 0.00 0.00 36 1010.8
20260509200049 84 337 0.9 5.2 0.00 0.00 0.00 39 1010.8
20260509195549 84 28 2.6 5.2 0.00 0.00 0.00 38 1011.0
20260509195049 83 10 0.9 5.2 0.00 0.00 0.00 38 1011.0
20260509194549 82 7 1.7 4.3 0.00 0.00 0.00 37 1011.0
20260509194050 82 287 1.7 5.2 0.00 0.00 0.00 39 1011.0
20260509193549 82 255 1.7 6.1 0.00 0.00 0.00 38 1011.1
20260509193049 83 321 3.5 6.1 0.00 0.00 0.00 37 1011.2
20260509192549 83 345 3.5 7.0 0.00 0.00 0.00 37 1011.2
20260509192049 83 327 0.9 4.3 0.00 0.00 0.00 39 1011.2
20260509191550 83 69 0.9 6.1 0.00 0.00 0.00 37 1011.3
20260509191050 83 21 2.6 4.3 0.00 0.00 0.00 41 1011.2
20260509190549 82 336 1.7 3.5 0.00 0.00 0.00 40 1011.2
20260509190049 82 33 0.9 3.5 0.00 0.00 0.00 38 1011.2
20260509185127 84 31 1.7 5.2 0.00 0.00 0.00 38 1011.3
20260509184549 83 70 0.0 5.2 0.00 0.00 0.00 39 1011.3
20260509184050 83 350 1.7 7.0 0.00 0.00 0.00 37 1011.3
20260509183549 84 352 5.2 7.0 0.00 0.00 0.00 35 1011.3
20260509183050 84 322 2.6 5.2 0.00 0.00 0.00 33 1011.3
20260509182550 83 337 1.7 3.5 0.00 0.00 0.00 35 1011.3
20260509182049 83 134 1.7 5.2 0.00 0.00 0.00 33 1011.3
20260509181550 83 51 1.7 4.3 0.00 0.00 0.00 35 1011.3
20260509181050 83 14 1.7 5.2 0.00 0.00 0.00 32 1011.3
20260509180550 83 101 0.0 2.6 0.00 0.00 0.00 32 1011.3
20260509180051 83 309 0.9 7.0 0.00 0.00 0.00 33 1011.3
20260509175550 84 314 0.9 3.5 0.00 0.00 0.00 35 1011.3
20260509175050 83 353 0.9 3.5 0.00 0.00 0.00 37 1011.5
20260509174549 81 15 0.0 5.2 0.00 0.00 0.00 41 1011.5
20260509174049 81 301 2.6 5.2 0.00 0.00 0.00 40 1011.6
20260509173550 81 343 1.7 6.1 0.00 0.00 0.00 43 1011.6
20260509173049 81 351 1.7 3.5 0.00 0.00 0.00 45 1011.7
20260509172549 81 65 0.0 4.3 0.00 0.00 0.00 44 1011.7
20260509172050 80 40 0.0 4.3 0.00 0.00 0.00 44 1011.8
20260509171550 80 305 1.7 5.2 0.00 0.00 0.00 46 1011.8
20260509171049 80 43 0.9 5.2 0.00 0.00 0.00 47 1011.8
20260509170549 79 327 0.9 5.2 0.00 0.00 0.00 48 1011.8
20260509170049 79 335 1.7 6.1 0.00 0.00 0.00 46 1011.8
20260509165550 78 5 1.7 5.2 0.00 0.00 0.00 48 1011.9
20260509165050 78 303 0.9 5.2 0.00 0.00 0.00 54 1011.9
20260509164550 78 319 1.7 6.1 0.00 0.00 0.00 52 1012.0
20260509164050 78 347 1.7 3.5 0.00 0.00 0.00 51 1012.0
20260509163549 78 328 1.7 5.2 0.00 0.00 0.00 50 1012.0
20260509163049 77 11 3.5 7.0 0.00 0.00 0.00 51 1012.0
20260509162550 78 345 1.7 3.5 0.00 0.00 0.00 55 1012.0
20260509162050 77 316 0.9 5.2 0.00 0.00 0.00 58 1012.0
20260509161550 76 350 1.7 3.5 0.00 0.00 0.00 59 1012.0
20260509161049 75 326 1.7 5.2 0.00 0.00 0.00 61 1012.0
20260509160549 75 333 1.7 7.0 0.00 0.00 0.00 62 1012.0
20260509160051 75 358 4.3 7.0 0.00 0.00 0.00 60 1012.0
20260509155550 74 329 1.7 5.2 0.00 0.00 0.00 61 1012.0
20260509155049 74 343 3.5 5.2 0.00 0.00 0.00 61 1012.0
20260509154550 74 0 3.5 5.2 0.00 0.00 0.00 61 1012.0
20260509154049 73 20 2.6 5.2 0.00 0.00 0.00 63 1011.9
20260509153549 73 355 1.7 3.5 0.00 0.00 0.00 65 1012.0
20260509153049 72 1 2.6 6.1 0.00 0.00 0.00 66 1012.0
20260509152549 72 302 0.9 5.2 0.00 0.00 0.00 68 1011.9
20260509152050 72 8 3.5 7.0 0.00 0.00 0.00 69 1011.9
20260509151549 72 337 1.7 4.3 0.00 0.00 0.00 69 1011.9
20260509151049 71 24 1.7 3.5 0.00 0.00 0.00 68 1011.9
20260509150549 71 325 1.7 5.2 0.00 0.00 0.00 71 1011.9
20260509150049 70 356 2.6 5.2 0.00 0.00 0.00 72 1012.0
20260509145549 70 354 3.5 5.2 0.00 0.00 0.00 72 1012.0
20260509145051 70 10 2.6 4.3 0.00 0.00 0.00 71 1012.0
20260509144549 69 25 1.7 4.3 0.00 0.00 0.00 73 1012.0
20260509144049 68 15 1.7 5.2 0.00 0.00 0.00 75 1012.0
20260509143549 68 15 1.7 5.2 0.00 0.00 0.00 76 1012.0
20260509143053 67 10 1.7 7.0 0.00 0.00 0.00 77 1012.0
20260509142549 67 335 2.6 5.2 0.00 0.00 0.00 77 1012.1
20260509142049 67 346 2.6 5.2 0.00 0.00 0.00 77 1012.0
20260509141551 66 356 1.7 5.2 0.00 0.00 0.00 78 1011.9
20260509141049 66 314 1.7 4.3 0.00 0.00 0.00 79 1011.9
20260509140551 65 352 3.5 4.3 0.00 0.00 0.00 80 1011.9
20260509140050 65 359 3.5 4.3 0.00 0.00 0.00 80 1011.8
20260509135550 64 5 2.6 5.2 0.00 0.00 0.00 80 1011.8
20260509135049 64 7 2.6 5.2 0.00 0.00 0.00 81 1011.8
20260509134550 63 355 1.7 4.3 0.00 0.00 0.00 82 1011.7
20260509134049 63 341 2.6 5.2 0.00 0.00 0.00 82 1011.7
20260509133550 62 352 2.6 5.2 0.00 0.00 0.00 83 1011.7
20260509133049 62 17 1.7 4.3 0.00 0.00 0.00 85 1011.7
20260509132550 62 355 2.6 5.2 0.00 0.00 0.00 85 1011.7
20260509132049 61 359 2.6 5.2 0.00 0.00 0.00 84 1011.6
20260509131550 61 357 1.7 3.5 0.00 0.00 0.00 85 1011.6
20260509131049 60 358 0.9 3.5 0.00 0.00 0.00 85 1011.5
20260509130550 60 20 1.7 3.5 0.00 0.00 0.00 87 1011.5
20260509130049 59 1 1.7 4.3 0.00 0.00 0.00 87 1011.6
20260509125550 58 355 1.7 4.3 0.00 0.00 0.00 89 1011.6
20260509125049 58 354 1.7 3.5 0.00 0.00 0.00 89 1011.5
20260509124550 57 1 1.7 4.3 0.00 0.00 0.00 90 1011.3
20260509124050 57 343 2.6 4.3 0.00 0.00 0.00 91 1011.3
20260509123549 56 353 2.6 4.3 0.00 0.00 0.00 92 1011.3
20260509123050 56 322 1.7 4.3 0.00 0.00 0.00 93 1011.2
20260509122549 55 317 1.7 3.5 0.00 0.00 0.00 94 1011.2
20260509122049 55 323 1.7 3.5 0.00 0.00 0.00 95 1011.1
20260509121549 54 323 2.6 3.5 0.00 0.00 0.00 96 1011.1
20260509121049 54 341 1.7 3.5 0.00 0.00 0.00 96 1011.0
20260509120549 54 350 3.5 3.5 0.00 0.00 0.00 96 1011.1
20260509120049 54 335 2.6 3.5 0.00 0.00 0.00 96 1011.1
20260509115549 54 348 0.9 2.6 0.00 0.00 0.00 97 1011.0
20260509115049 53 16 0.0 1.7 0.00 0.00 0.00 97 1011.0
20260509114550 53 317 0.9 2.6 0.00 0.00 0.00 97 1010.9
20260509114050 53 356 0.9 1.7 0.00 0.00 0.00 98 1010.8
20260509113550 53 336 1.7 2.6 0.00 0.00 0.00 98 1010.7
20260509113051 53 333 0.9 1.7 0.00 0.00 0.00 98 1010.7
20260509112549 53 356 1.7 3.5 0.00 0.00 0.00 97 1010.6
20260509112049 53 342 1.7 3.5 0.00 0.00 0.00 97 1010.4
20260509111549 53 351 1.7 3.5 0.00 0.00 0.00 97 1010.4
20260509111051 53 329 1.7 2.6 0.00 0.00 0.00 97 1010.3
20260509110549 53 337 1.7 3.5 0.00 0.00 0.00 97 1010.2
20260509110050 53 4 1.7 3.5 0.00 0.00 0.00 97 1010.2
20260509105549 53 352 1.7 2.6 0.00 0.00 0.00 97 1010.2
20260509105050 53 326 0.9 2.6 0.00 0.00 0.00 96 1010.2
20260509104549 54 0 0.9 2.6 0.00 0.00 0.00 96 1010.2
20260509104049 54 329 0.9 2.6 0.00 0.00 0.00 96 1010.1
20260509103549 54 335 1.7 2.6 0.00 0.00 0.00 96 1010.1
20260509103049 54 357 0.0 3.5 0.00 0.00 0.00 96 1010.1
20260509102549 54 334 0.9 2.6 0.00 0.00 0.00 96 1010.1
20260509102049 54 340 0.9 2.6 0.00 0.00 0.00 96 1010.2
20260509101549 54 352 1.7 3.5 0.00 0.00 0.00 96 1010.2
20260509101049 54 3 1.7 3.5 0.00 0.00 0.00 95 1010.2
20260509100549 54 346 1.7 2.6 0.00 0.00 0.00 95 1010.3
20260509100049 54 329 1.7 3.5 0.00 0.00 0.00 94 1010.2
20260509095550 54 329 1.7 3.5 0.00 0.00 0.00 95 1010.3
20260509095050 54 337 1.7 2.6 0.00 0.00 0.00 95 1010.4
20260509094549 54 337 1.7 2.6 0.00 0.00 0.00 95 1010.4
20260509094049 54 354 1.7 2.6 0.00 0.00 0.00 94 1010.5
20260509093549 54 5 1.7 3.5 0.00 0.00 0.00 94 1010.6
20260509093050 54 342 1.7 2.6 0.00 0.00 0.00 93 1010.6
20260509092551 54 3 1.7 2.6 0.00 0.00 0.00 93 1010.5
20260509092049 55 353 1.7 2.6 0.00 0.00 0.00 93 1010.5
20260509091549 55 347 1.7 2.6 0.00 0.00 0.00 92 1010.4
20260509091049 55 342 1.7 2.6 0.00 0.00 0.00 92 1010.6
20260509090549 55 353 1.7 3.5 0.00 0.00 0.00 91 1010.5
20260509090049 55 344 1.7 3.5 0.00 0.00 0.00 91 1010.5
20260509085549 55 346 1.7 3.5 0.00 0.00 0.00 91 1010.6
20260509085050 55 356 1.7 3.5 0.00 0.00 0.00 90 1010.6
20260509084549 56 338 1.7 2.6 0.00 0.00 0.00 89 1010.7
20260509084050 56 346 1.7 2.6 0.00 0.00 0.00 89 1010.8
20260509083550 56 351 1.7 3.5 0.00 0.00 0.00 88 1010.9
20260509083049 56 339 1.7 3.5 0.00 0.00 0.00 88 1010.9
20260509082549 56 351 1.7 4.3 0.00 0.00 0.00 87 1010.9
20260509082049 56 331 2.6 3.5 0.00 0.00 0.00 87 1010.9
20260509081549 56 349 1.7 3.5 0.00 0.00 0.00 87 1010.8
20260509081050 57 344 1.7 4.3 0.00 0.00 0.00 86 1010.7
20260509080549 57 347 1.7 3.5 0.00 0.00 0.00 86 1010.8
20260509080051 57 338 1.7 3.5 0.00 0.00 0.00 86 1010.8
20260509075549 57 326 1.7 3.5 0.00 0.00 0.00 85 1010.8
20260509075049 57 341 1.7 4.3 0.00 0.00 0.00 84 1010.8
20260509074549 57 336 0.9 4.3 0.00 0.00 0.00 84 1010.7
20260509074049 58 341 0.9 2.6 0.00 0.00 0.00 83 1010.7
20260509073550 58 337 1.7 3.5 0.00 0.00 0.00 82 1010.7
20260509073049 58 325 0.9 2.6 0.00 0.00 0.00 82 1010.7
20260509072106 58 10 1.7 3.5 0.00 0.00 0.00 81 1010.6